TimeCDT,TemperatureF,Dew PointF,Humidity,Sea Level PressureIn,VisibilityMPH,Wind Direction,Wind SpeedMPH,Gust SpeedMPH,PrecipitationIn,Events,Conditions,WindDirDegrees,DateUTC
12:15 AM,37.4,32.0,81,30.29,10.0,NW,4.6,-,N/A,,Scattered Clouds,310,2012-10-07 05:15:00
12:35 AM,37.4,32.0,81,30.30,10.0,NW,4.6,-,N/A,,Mostly Cloudy,310,2012-10-07 05:35:00
12:55 AM,39.2,32.0,75,30.30,10.0,NNW,5.8,-,N/A,,Mostly Cloudy,340,2012-10-07 05:55:00
1:15 AM,39.2,32.0,75,30.30,10.0,NW,3.5,-,N/A,,Overcast,320,2012-10-07 06:15:00
1:35 AM,37.4,32.0,81,30.30,10.0,Calm,Calm,-,N/A,,Mostly Cloudy,0,2012-10-07 06:35:00
1:55 AM,37.4,32.0,81,30.31,10.0,Calm,Calm,-,N/A,,Scattered Clouds,0,2012-10-07 06:55:00
2:15 AM,37.4,32.0,81,30.31,10.0,Calm,Calm,-,N/A,,Clear,0,2012-10-07 07:15:00
2:35 AM,37.4,32.0,81,30.31,10.0,Calm,Calm,-,N/A,,Clear,0,2012-10-07 07:35:00
2:55 AM,37.4,32.0,81,30.31,10.0,Calm,Calm,-,N/A,,Clear,0,2012-10-07 07:55:00
3:15 AM,37.4,32.0,81,30.30,10.0,Calm,Calm,-,N/A,,Clear,0,2012-10-07 08:15:00
3:35 AM,35.6,32.0,87,30.30,10.0,West,3.5,-,N/A,,Clear,280,2012-10-07 08:35:00
3:55 AM,35.6,32.0,87,30.29,10.0,West,3.5,-,N/A,,Clear,280,2012-10-07 08:55:00
4:15 AM,35.6,32.0,87,30.29,10.0,Calm,Calm,-,N/A,,Clear,0,2012-10-07 09:15:00
4:35 AM,35.6,30.2,81,30.28,10.0,Calm,Calm,-,N/A,,Clear,0,2012-10-07 09:35:00
4:55 AM,33.8,30.2,87,30.29,10.0,Calm,Calm,-,N/A,,Clear,0,2012-10-07 09:55:00
5:15 AM,33.8,30.2,87,30.29,10.0,Calm,Calm,-,N/A,,Clear,0,2012-10-07 10:15:00
5:35 AM,33.8,30.2,87,30.29,10.0,Calm,Calm,-,N/A,,Clear,0,2012-10-07 10:35:00
5:55 AM,32.0,28.4,87,30.29,10.0,West,3.5,-,N/A,,Clear,270,2012-10-07 10:55:00
6:15 AM,32.0,28.4,87,30.29,10.0,Calm,Calm,-,N/A,,Clear,0,2012-10-07 11:15:00
6:35 AM,32.0,30.2,93,30.29,10.0,Calm,Calm,-,N/A,,Clear,0,2012-10-07 11:35:00
6:55 AM,30.2,28.4,93,30.30,10.0,Calm,Calm,-,N/A,,Clear,0,2012-10-07 11:55:00
7:15 AM,32.0,30.2,93,30.30,10.0,Calm,Calm,-,N/A,,Clear,0,2012-10-07 12:15:00
7:35 AM,32.0,30.2,93,30.30,10.0,Calm,Calm,-,N/A,,Clear,0,2012-10-07 12:35:00
7:55 AM,32.0,30.2,93,30.31,10.0,Calm,Calm,-,N/A,,Clear,0,2012-10-07 12:55:00
8:35 AM,35.6,32.0,87,30.32,10.0,Calm,Calm,-,N/A,,Clear,0,2012-10-07 13:35:00
8:55 AM,37.4,32.0,81,30.33,10.0,Calm,Calm,-,N/A,,Clear,0,2012-10-07 13:55:00
9:15 AM,41.0,32.0,70,30.33,10.0,West,4.6,-,N/A,,Clear,270,2012-10-07 14:15:00
9:35 AM,42.8,30.2,61,30.33,10.0,West,8.1,-,N/A,,Clear,260,2012-10-07 14:35:00
9:55 AM,44.6,32.0,61,30.33,10.0,SW,5.8,-,N/A,,Clear,230,2012-10-07 14:55:00
10:15 AM,44.6,30.2,57,30.32,10.0,WSW,6.9,-,N/A,,Clear,240,2012-10-07 15:15:00
10:35 AM,44.6,28.4,53,30.32,10.0,Calm,Calm,-,N/A,,Clear,0,2012-10-07 15:35:00
10:55 AM,46.4,30.2,53,30.32,10.0,West,5.8,-,N/A,,Clear,270,2012-10-07 15:55:00
11:55 AM,48.2,26.6,43,30.31,10.0,WSW,8.1,-,N/A,,Clear,250,2012-10-07 16:55:00
12:15 PM,50.0,26.6,40,30.30,10.0,West,5.8,-,N/A,,Clear,260,2012-10-07 17:15:00
12:35 PM,50.0,26.6,40,30.29,10.0,WSW,8.1,-,N/A,,Clear,250,2012-10-07 17:35:00
12:55 PM,51.8,26.6,38,30.28,10.0,WNW,8.1,-,N/A,,Clear,300,2012-10-07 17:55:00
1:15 PM,51.8,26.6,38,30.26,10.0,WNW,4.6,-,N/A,,Clear,300,2012-10-07 18:15:00
1:35 PM,51.8,26.6,38,30.26,10.0,Calm,Calm,-,N/A,,Clear,0,2012-10-07 18:35:00
2:35 PM,51.8,23.0,33,30.22,10.0,WSW,6.9,-,N/A,,Clear,240,2012-10-07 19:35:00
2:55 PM,53.6,24.8,33,30.21,10.0,West,6.9,-,N/A,,Clear,270,2012-10-07 19:55:00
3:35 PM,53.6,26.6,35,30.20,10.0,Calm,Calm,-,N/A,,Clear,0,2012-10-07 20:35:00
3:55 PM,53.6,24.8,33,30.19,10.0,Calm,Calm,-,N/A,,Clear,0,2012-10-07 20:55:00
4:15 PM,53.6,26.6,35,30.18,10.0,Calm,Calm,-,N/A,,Clear,0,2012-10-07 21:15:00
4:35 PM,53.6,26.6,35,30.17,10.0,South,3.5,-,N/A,,Clear,180,2012-10-07 21:35:00
4:55 PM,53.6,26.6,35,30.17,10.0,Calm,Calm,-,N/A,,Clear,0,2012-10-07 21:55:00
5:15 PM,53.6,26.6,35,30.17,10.0,WSW,4.6,-,N/A,,Clear,240,2012-10-07 22:15:00
5:35 PM,53.6,26.6,35,30.16,10.0,SSW,4.6,-,N/A,,Clear,210,2012-10-07 22:35:00
5:55 PM,53.6,26.6,35,30.16,10.0,Calm,Calm,-,N/A,,Clear,0,2012-10-07 22:55:00
6:35 PM,50.0,28.4,43,30.17,10.0,SSW,3.5,-,N/A,,Clear,200,2012-10-07 23:35:00
6:55 PM,48.2,28.4,46,30.17,10.0,South,3.5,-,N/A,,Clear,190,2012-10-07 23:55:00
7:35 PM,46.4,28.4,50,30.18,10.0,SSW,4.6,-,N/A,,Clear,200,2012-10-08 00:35:00
7:55 PM,44.6,28.4,53,30.18,10.0,South,3.5,-,N/A,,Clear,190,2012-10-08 00:55:00
8:15 PM,44.6,30.2,57,30.18,10.0,South,4.6,-,N/A,,Clear,170,2012-10-08 01:15:00
8:35 PM,42.8,32.0,66,30.18,10.0,South,4.6,-,N/A,,Clear,170,2012-10-08 01:35:00
8:55 PM,41.0,32.0,70,30.18,10.0,South,4.6,-,N/A,,Clear,170,2012-10-08 01:55:00
9:15 PM,41.0,32.0,70,30.18,10.0,South,4.6,-,N/A,,Clear,170,2012-10-08 02:15:00
9:35 PM,41.0,32.0,70,30.18,10.0,SSE,4.6,-,N/A,,Clear,160,2012-10-08 02:35:00
9:55 PM,41.0,32.0,70,30.18,10.0,South,5.8,-,N/A,,Clear,180,2012-10-08 02:55:00
10:15 PM,41.0,32.0,70,30.18,10.0,South,4.6,-,N/A,,Clear,180,2012-10-08 03:15:00
10:35 PM,39.2,32.0,75,30.18,10.0,South,4.6,-,N/A,,Clear,170,2012-10-08 03:35:00
10:55 PM,39.2,32.0,75,30.18,10.0,South,5.8,-,N/A,,Clear,170,2012-10-08 03:55:00
11:15 PM,41.0,32.0,70,30.17,10.0,South,5.8,-,N/A,,Clear,170,2012-10-08 04:15:00
11:35 PM,39.2,30.2,70,30.17,10.0,South,6.9,-,N/A,,Clear,180,2012-10-08 04:35:00
11:55 PM,39.2,32.0,75,30.16,10.0,South,5.8,-,N/A,,Clear,170,2012-10-08 04:55:00